Location: Hamilton
(37.7830°S, 175.2830°E)
Time: 23:53:19
(UTC+13:00)

Cosmos 1655 Rocket - Pass Details

Date: 24 January 2019
Orbit: 971 x 1005 km, 83.0° (Epoch: 17 October)

Event Time Altitude Azimuth Distance (km) Brightness Sun altitude
Rises 20:56:45 0° 354° (N) 3,699 6.8 -4.1°
Reaches altitude 10° 20:59:16 10° 354° (N) 2,753 6.2 -4.5°
Maximum altitude 21:05:36 87° 266° (W) 1,002 4.2 -5.6°
Drops below altitude 10° 21:11:58 10° 174° (S) 2,763 6.7 -6.7°
Sets 21:14:30 0° 173° (S) 3,714 7.4 -7.1°
